Location: Unspecified
(41.5516°N, 88.1098°W)
Time: 03:12:32
(UTC-05:00)

Resurs 1-4 Rocket - Visible Passes

Search period start: 01 October 2014 00:00
Search period end: 11 October 2014 00:00
Orbit: 801 x 814 km, 98.3° (Epoch: 30 September)

Date Brightness Start Highest point End Pass type
(mag) Time Alt. Az. Time Alt. Az. Time Alt. Az.
01 Oct 4.0 04:04:31 10° NE 04:09:02 27° E 04:13:30 10° SSE visible
01 Oct 2.6 05:44:04 10° N 05:48:57 38° WNW 05:53:49 10° SW visible
02 Oct 4.7 03:41:04 10° NE 03:44:23 17° E 03:47:39 10° SE visible
02 Oct 2.1 05:19:24 10° N 05:24:39 63° WNW 05:29:53 10° SSW visible
03 Oct 2.2 04:54:56 10° NNE 05:00:17 80° ESE 05:05:36 10° S visible
04 Oct 3.0 04:30:40 10° NNE 04:35:49 48° E 04:40:56 10° S visible
04 Oct 3.3 06:11:15 10° NNW 06:15:20 23° WNW 06:19:24 10° WSW visible
05 Oct 3.9 04:06:40 10° NE 04:11:16 29° E 04:15:50 10° SSE visible
05 Oct 2.7 05:46:19 10° N 05:51:09 36° WNW 05:55:57 10° SW visible
06 Oct 4.6 03:43:08 10° NE 03:46:37 18° E 03:50:05 10° SE visible
06 Oct 2.1 05:21:38 10° N 05:26:52 59° WNW 05:32:04 10° SSW visible
07 Oct 2.1 04:57:08 10° NNE 05:02:30 85° ESE 05:07:47 10° SSW visible
08 Oct 2.9 04:32:51 10° NNE 04:38:03 51° E 04:42:57 11° S visible
08 Oct 3.3 06:13:33 10° NNW 06:17:31 22° WNW 06:21:29 10° WSW visible
09 Oct 3.8 04:08:49 10° NE 04:13:30 31° E 04:18:06 10° SSE visible
09 Oct 2.7 05:48:34 10° N 05:53:20 34° WNW 05:58:05 10° SW visible
10 Oct 4.5 03:45:13 10° NE 03:48:52 19° E 03:52:30 10° SE visible
10 Oct 2.2 05:23:52 10° N 05:29:04 56° WNW 05:34:14 10° SSW visible
